Time,TemperatureF,DewpointF,PressureIn,WindDirection,WindDirectionDegrees,WindSpeedMPH,WindSpeedGustMPH,Humidity,HourlyPrecipIn,Conditions,Clouds,dailyrainin,SolarRadiationWatts/m^2,SoftwareType,DateUTC
2014-08-20 00:00:00,65.0,62.0,-100.00,NNW,337,4.0,-999.0,92,-99.99,,,-99.99,0.000000,,2014-08-20 05:00:00,
2014-08-20 00:42:00,65.0,62.0,-100.00,NNW,337,4.0,-999.0,92,-99.99,,,-99.99,0.000000,,2014-08-20 05:42:00,
2014-08-20 00:53:00,65.0,62.0,-100.00,NNW,337,4.0,-999.0,92,-99.99,,,-99.99,0.000000,,2014-08-20 05:53:00,
2014-08-20 01:00:00,63.0,61.0,-100.00,NNW,337,3.0,-999.0,91,-99.99,,,-99.99,0.000000,,2014-08-20 06:00:00,
2014-08-20 01:42:00,63.0,61.0,-100.00,NNW,337,3.0,-999.0,91,-99.99,,,-99.99,0.000000,,2014-08-20 06:42:00,
2014-08-20 01:52:00,63.0,61.0,-100.00,NNW,337,3.0,-999.0,91,-99.99,,,-99.99,0.000000,,2014-08-20 06:52:00,
2014-08-20 02:00:00,63.0,60.0,-100.00,NNW,337,4.0,-999.0,91,-99.99,,,-99.99,0.000000,,2014-08-20 07:00:00,
2014-08-20 02:42:00,63.0,60.0,-100.00,NNW,337,4.0,-999.0,91,-99.99,,,-99.99,0.000000,,2014-08-20 07:42:00,
2014-08-20 02:53:00,63.0,60.0,-100.00,NNW,337,4.0,-999.0,91,-99.99,,,-99.99,0.000000,,2014-08-20 07:53:00,
2014-08-20 03:42:00,61.0,59.0,-100.00,NNW,337,1.0,-999.0,93,-99.99,,,-99.99,0.000000,,2014-08-20 08:42:00,
2014-08-20 04:00:00,62.0,60.0,-100.00,NW,315,1.0,-999.0,93,-99.99,,,-99.99,0.000000,,2014-08-20 09:00:00,
2014-08-20 04:43:00,62.0,60.0,-100.00,NW,315,1.0,-999.0,93,-99.99,,,-99.99,0.000000,,2014-08-20 09:43:00,
2014-08-20 04:52:00,62.0,60.0,-100.00,NW,315,1.0,-999.0,93,-99.99,,,-99.99,0.000000,,2014-08-20 09:52:00,
2014-08-20 05:42:00,62.0,60.0,-100.00,NW,315,1.0,-999.0,93,-99.99,,,-99.99,0.000000,,2014-08-20 10:42:00,
2014-08-20 05:53:00,62.0,60.0,-100.00,NW,315,1.0,-999.0,93,-99.99,,,-99.99,0.000000,,2014-08-20 10:53:00,
2014-08-20 06:52:00,62.0,60.0,-100.00,NNW,337,2.0,-999.0,93,-99.99,,,-99.99,0.000000,,2014-08-20 11:52:00,
2014-08-20 07:00:00,62.0,60.0,-100.00,NNW,337,3.0,-999.0,92,-99.99,,,-99.99,18.559999,,2014-08-20 12:00:00,
2014-08-20 07:42:00,62.0,60.0,-100.00,NNW,337,3.0,-999.0,92,-99.99,,,-99.99,18.559999,,2014-08-20 12:42:00,
2014-08-20 07:53:00,62.0,60.0,-100.00,NNW,337,3.0,-999.0,92,-99.99,,,-99.99,18.559999,,2014-08-20 12:53:00,
2014-08-20 08:00:00,62.0,60.0,-100.00,NNW,337,3.0,-999.0,91,-99.99,,,-99.99,63.799999,,2014-08-20 13:00:00,
2014-08-20 08:43:00,62.0,60.0,-100.00,NNW,337,3.0,-999.0,91,-99.99,,,-99.99,63.799999,,2014-08-20 13:43:00,
2014-08-20 08:52:00,62.0,60.0,-100.00,NNW,337,3.0,-999.0,91,-99.99,,,-99.99,63.799999,,2014-08-20 13:52:00,
2014-08-20 09:00:00,63.0,60.0,-100.00,NNW,337,4.0,-999.0,88,-99.99,,,-99.99,146.160004,,2014-08-20 14:00:00,
2014-08-20 09:53:00,63.0,60.0,-100.00,NNW,337,4.0,-999.0,88,-99.99,,,-99.99,146.160004,,2014-08-20 14:53:00,
2014-08-20 10:54:00,63.0,60.0,-100.00,North,0,4.0,-999.0,88,-99.99,,,-99.99,164.720001,,2014-08-20 15:54:00,
2014-08-20 11:00:00,64.0,60.0,-100.00,North,0,3.0,-999.0,87,-99.99,,,-99.99,167.039993,,2014-08-20 16:00:00,
2014-08-20 11:53:00,64.0,60.0,-100.00,North,0,3.0,-999.0,87,-99.99,,,-99.99,167.039993,,2014-08-20 16:53:00,
2014-08-20 12:00:00,64.0,60.0,-100.00,NNW,337,1.0,-999.0,86,-99.99,,,-99.99,179.800003,,2014-08-20 17:00:00,
2014-08-20 12:43:00,64.0,60.0,-100.00,NNW,337,1.0,-999.0,86,-99.99,,,-99.99,179.800003,,2014-08-20 17:43:00,
2014-08-20 12:53:00,64.0,60.0,-100.00,NNW,337,1.0,-999.0,86,-99.99,,,-99.99,179.800003,,2014-08-20 17:53:00,
2014-08-20 13:00:00,66.0,61.0,-100.00,WNW,292,2.0,-999.0,82,-99.99,,,-99.99,393.239990,,2014-08-20 18:00:00,
2014-08-20 13:43:00,66.0,61.0,-100.00,WNW,292,2.0,-999.0,82,-99.99,,,-99.99,393.239990,,2014-08-20 18:43:00,
2014-08-20 13:52:00,66.0,61.0,-100.00,WNW,292,2.0,-999.0,82,-99.99,,,-99.99,393.239990,,2014-08-20 18:52:00,
2014-08-20 14:00:00,69.0,61.0,-100.00,West,270,2.0,-999.0,74,-99.99,,,-99.99,574.200012,,2014-08-20 19:00:00,
2014-08-20 14:42:00,69.0,61.0,-100.00,West,270,2.0,-999.0,74,-99.99,,,-99.99,574.200012,,2014-08-20 19:42:00,
2014-08-20 15:42:00,72.0,61.0,-100.00,SW,225,3.0,-999.0,68,-99.99,,,-99.99,796.919983,,2014-08-20 20:42:00,
2014-08-20 15:53:00,72.0,61.0,-100.00,SW,225,3.0,-999.0,68,-99.99,,,-99.99,796.919983,,2014-08-20 20:53:00,
2014-08-20 16:54:00,72.0,61.0,-100.00,SW,225,4.0,-999.0,66,-99.99,,,-99.99,647.280029,,2014-08-20 21:54:00,
2014-08-20 17:00:00,71.0,61.0,-100.00,West,270,2.0,-999.0,69,-99.99,,,-99.99,292.320007,,2014-08-20 22:00:00,
2014-08-20 17:43:00,71.0,61.0,-100.00,West,270,2.0,-999.0,69,-99.99,,,-99.99,292.320007,,2014-08-20 22:43:00,
2014-08-20 18:00:00,70.0,61.0,-100.00,WNW,292,2.0,-999.0,72,-99.99,,,-99.99,201.839996,,2014-08-20 23:00:00,
2014-08-20 18:53:00,70.0,61.0,-100.00,WNW,292,2.0,-999.0,72,-99.99,,,-99.99,201.839996,,2014-08-20 23:53:00,
2014-08-20 19:00:00,70.0,61.0,-100.00,NW,315,1.0,-999.0,71,-99.99,,,-99.99,167.039993,,2014-08-21 00:00:00,
2014-08-20 19:53:00,70.0,61.0,-100.00,NW,315,1.0,-999.0,71,-99.99,,,-99.99,167.039993,,2014-08-21 00:53:00,
2014-08-20 20:00:00,66.0,61.0,-100.00,North,-999,0.0,-999.0,82,-99.99,,,-99.99,12.760000,,2014-08-21 01:00:00,
2014-08-20 20:42:00,66.0,61.0,-100.00,North,-999,0.0,-999.0,82,-99.99,,,-99.99,12.760000,,2014-08-21 01:42:00,
2014-08-20 20:52:00,66.0,61.0,-100.00,North,-999,0.0,-999.0,82,-99.99,,,-99.99,12.760000,,2014-08-21 01:52:00,